Regional Weather Roundup
Issued by NWS Grand Forks, ND

Home | Current Version | Previous Version | Graphics & Text | Print | Product List | Glossary On
Versions: 1 2 3 4 5 6 7 8 9 10 11 12 13 14 15 16 17 18 19 20 21 22 23 24 25 26 27 28 29 30 31 32 33 34 35 36 37 38 39 40 41 42 43 44 45 46 47 48 49 50
000
ASUS43 KFGF 251031
RWRFGF
PRAIRIE TO PINES  WEATHER ROUNDUP
NATIONAL WEATHER SERVICE EASTERN NORTH DAKOTA/GRAND FORKS ND
500 AM CDT THU MAY 25 2017

 **SATELLITE DATA USED TO AUGMENT SKY COVER AT AUTOMATED STATIONS**
 *****  WEATHER ACROSS EASTERN NORTH DAKOTA  *****

CITY           SKY/WX    TMP DP  RH WIND       PRES   REMARKS
GRAND FORKS    FAIR      49  42  77 SE12      29.57F
GRAND FRKS AFB FAIR      47  42  82 SE9       29.57F
DEVILS LAKE    MOCLDY    51  44  77 SE23G29   29.48F
FARGO          FAIR      51  42  71 SE12      29.59F
WAHPETON ARPT  FAIR      46  41  81 SE12      29.62S
$$

 ***** WEATHER ACROSS CENTRAL AND WESTERN NORTH DAKOTA  *****

CITY           SKY/WX    TMP DP  RH WIND       PRES   REMARKS
BISMARCK       CLOUDY    53  48  83 SE8       29.41F
MINOT          LGT RAIN  53  49  86 SE9       29.38F
JAMESTOWN      MOCLDY    50  43  77 SE24G31   29.45F
MINOT AFB      FAIR      52  50  94 S14       29.38R
GARRISON         N/A     50  48  93 SE13      29.38F
WILLISTON      FAIR      49  47  93 S6        29.37F
DICKINSON      FOG       43  42  97 CALM      29.39S VSB 1/4
HETTINGER      FAIR      42  40  92 NW7       29.42R FOG
$$

 *****  OTHER AIRPORT OBSERVATIONS IN OUR AREA  *****

CITY           SKY/WX    TMP DP  RH WIND       PRES   REMARKS
WALHALLA       NOT AVBL
GRAFTON AIRPOR FAIR      46  43  87 SE12      29.58F
VALLEY CITY AR FAIR      50  48  93 SE16G24   29.54
CANDO          NOT AVBL
CAVALIER APRT  FAIR      48  41  76 SE10      29.55
GWINNER        SUNNY     48  45  87 MISG      29.56F
SHEYENNE NWR     N/A     48  46  94 SE8       29.95S
ROLLA          CLOUDY    48  46  93 S20       29.46
 ***** THE ABOVE OBSERVATIONS ARE NON NWS ARE NOT QUALITY
       CONTROLLED AND MAY MIS-REPORT RAIN FOR SNOW...
$$

  *****  WEATHER ACROSS NORTHERN MINNESOTA  *****

CITY           SKY/WX    TMP DP  RH WIND       PRES   REMARKS
FLAG ISLAND    FAIR      52  45  76 S16       29.67S
WARROAD        FAIR      46  43  87 SE9       29.67S
ROSEAU         FAIR      48  43  81 SE7       29.65S
HALLOCK        FAIR      50  43  76 SE15      29.58F
THF RVR FALLS  FAIR      46  41  82 SE14      29.64F
BAUDETTE       FAIR      40  38  93 SE6       29.69S
WASKISH        FAIR      43  39  87 E5        29.70R
CROOKSTON      FAIR      48  43  81 SE13      29.61S
STEPHEN NDAWN    N/A     50  43  76 SE12        N/A
GREENBUSH NDAW   N/A     46  41  81 SE9         N/A
$$
  *****  WEATHER ACROSS CENTRAL AND WEST MINNESOTA  *****

CITY           SKY/WX    TMP DP  RH WIND       PRES   REMARKS
FOSSTON        FAIR      41  37  87 E6        29.65S
BEMIDJI        FAIR      43  41  94 SE6       29.68R
PARK RAPIDS    FAIR      47  41  80 SE6       29.67R
ELBOW LAKE     FAIR      48  43  83 E8        29.65R
WADENA         FAIR      45  43  93 E5        29.67S
DETROIT LAKES  FAIR      46  43  87 SE9       29.65F
MOORHEAD       FAIR      48  41  76 SE9       29.61F
FERGUS FALLS   FAIR      50  43  76 SE9       29.63S
MORRIS MN      FAIR      46  45  93 SE9       29.63R
STAPLES        FAIR      46  43  87 E3        29.67S
$$
  *****  WEATHER ELSEWHERE ACROSS MINNESOTA  *****

CITY           SKY/WX    TMP DP  RH WIND       PRES   REMARKS
DULUTH         FAIR      42  40  92 E7        29.74R
INTRNTL FALLS  FAIR      39  36  89 E7        29.72S
ELY            FAIR      30  30 100 CALM      29.75S
CLOQUET        FOG       37  37 100 CALM      29.73F VSB 1/2
WHEATON        FAIR      46  43  87 SE12      29.64R
BRAINERD       FAIR      49  45  86 SE7       29.69S
HIBBING        FAIR      31  31 100 CALM      29.73S FOG
ALEXANDRIA     FAIR      46  42  86 SE8       29.66S
SAINT CLOUD    FAIR      47  46  97 E3        29.68S
MINNEAPOLIS    FAIR      51  47  86 E8        29.69S
$$

  *****  WEATHER ACROSS SOUTH DAKOTA  *****

CITY           SKY/WX    TMP DP  RH WIND       PRES   REMARKS
SIOUX FALLS    FAIR      50  45  83 SE10      29.59S
BROOKINGS      FAIR      48  44  86 SE16      29.58F
WATERTOWN      FAIR      49  42  77 S16       29.56R
HURON          LGT RAIN  52  44  74 SE15G26   29.50R
SISSETON         N/A     43  43 100 S6        29.59R
ABERDEEN       LGT RAIN  51  44  77 SE16G23   29.50F
MITCHELL       FAIR      53  44  71 SE17      29.52S
PIERRE         FAIR      54  43  66 SE22G31   29.33S
MOBRIDGE       FAIR      52  43  71 SE16      29.35F
RAPID CITY     FAIR      48  43  82 NW7       29.45R
$$

  *****  SOME WEATHER IN NEARBY STATES *****

CITY           SKY/WX    TMP DP  RH WIND       PRES   REMARKS
GLASGOW MT     CLOUDY    51  36  56 SW20G26   29.31F
GREAT FALLS MT LGT RAIN  41  37  86 SW18      29.59S
CHEYENNE WY    FAIR      57  38  48 NW20G29   29.63R
SCOTTSBLUFF NE MOCLDY    56  46  69 NW18G24   29.53R
OMAHA NE       FAIR      50  44  80 SE7       29.65S
DES MOINES IA  FAIR      47  44  90 CALM      29.69R
DAVENPORT IA   MOCLDY    52  49  89 N9        29.65S
CHICAGO IL     MOCLDY    54  50  86 N13       29.55S
EAU CLAIRE WI  CLOUDY    52  49  89 NE3       29.71R
LA CROSSE WI   FAIR      48  46  93 CALM      29.69S FOG
$$

  *****  SOME NATIONAL WEATHER *****

CITY           SKY/WX    TMP DP  RH WIND       PRES   REMARKS
LA GUARDIA NY  LGT RAIN  57  54  89 NE12      29.72F
RALEIGH NC     FAIR      61  60  97 S5        29.51R
ATLANTA GA     MOCLDY    56  54  93 W13       29.67R
NEW ORLEANS LA FAIR      59  55  87 CALM      29.81S
OKLAHOMA CITY  FAIR      53  47  79 SE10      29.68S
ALBUQUERQUE NM FAIR      70  21  15 SE5       29.81S
SALT LAKE CITY CLOUDY    62  38  40 NW10      29.67R
LOS ANGELES CA CLOUDY    59  52  77 S6        29.85F
BOISE ID       FAIR      46  30  53 NW7       29.73R
SEATTLE WA     FAIR      50  44  80 CALM      29.92R
$$

*** WEATHER ACROSS MANITOBA...SASKATCHEWAN AND ONTARIO ***
                ***ONTARIO***

CITY           SKY/WX    TMP DP  RH WIND       PRES   REMARKS
GERALDTON      PTCLDY    36  32  87 CALM      29.83R
THUNDER BAY    CLEAR     36  36 100 W3        29.79S
SIOUX LOOKOUT  CLEAR     43  32  65 SE5       29.76S
TORONTO        LGT RAIN  55  54  94 E15G23    29.58F FOG
BIG TROUT LK   CLEAR     41  32  70 SE5       29.76R
PICKLE LAKE    NOT AVBL
DRYDEN         CLEAR     46  36  66 SE5       29.75R
KENORA         CLEAR     46  39  76 SE7       29.70R
$$
                *** MANITOBA***

CITY           SKY/WX    TMP DP  RH WIND       PRES   REMARKS
BRANDON        LGT RAIN  52  46  82 SE22G29   29.43S
DAUPHIN        LGT RAIN  54  46  76 S8        29.39S
ISLAND LAKE    PTCLDY    50  34  53 SE8       29.65S
PILOT MOUND      N/A     50  41  71 SE22G28     N/A
THE PAS        CLOUDY    57  48  72 SE10      29.38S
THOMPSON       MOCLDY    50  37  62 E3        29.55R
WINNIPEG       MOCLDY    52  41  66 SE15G24   29.58F
LYNN LAKE      PTCLDY    50  39  66 E8        29.47S
CHURCHILL      MOCLDY    41  41 100 NE5       29.61R
GILLAM         PTCLDY    41  34  75 S3        29.61R
$$
                ***SASKATCHEWAN***

CITY           SKY/WX    TMP DP  RH WIND       PRES   REMARKS
ESTEVAN        PTCLDY    48  46  93 S9        29.32F
KINDERSLEY     LGT RAIN  48  48 100 NW15G24   29.16F
LLOYDMINSTER   LGT RAIN  48  48 100 N20G28    29.34R
PRINCE ALBERT  MOCLDY    48  43  81 E8        29.25R
REGINA         PTCLDY    41  30  65 S10       29.25S
YORKTON          N/A     52  48  87 SE17G24   29.28F
N. BATTLEFORD  LGT RAIN  46  46 100 NE9       29.23R
LA RONGE       LGT RAIN  46  46 100 NE6       29.35R
SASKATOON      LGT RAIN  46  45  93 NE2       29.21R
SWIFT CURRENT  CLOUDY    43  41  93 NW10      29.17R
$$
NOTE: THESE ARE AUTOMATED STATIONS WITH LIMITED QUALITY CONTROL
      "FAIR" INDICATES FEW OR NO CLOUDS BELOW 12,000 FEET WITH NO
      SIGNIFICANT WEATHER AND/OR OBSTRUCTIONS TO VISIBILITY.
      SKY/WX - SKY CONDITION AND SIGNIFICANT WEATHER.
      TMP - AIR TEMPERATURE.    DP   - DEWPOINT TEMPERATURE.
      RH  - RELATIVE HUMIDITY.  PRES - PRESSURE.
      HX  - HEAT INDEX.         WCI  - WIND CHILL INDEX.
$




USA.gov is the U.S. government's official web portal to all federal, state and local government web resources and services.